Temperature
19 19 19 19 19 18 18 18 18 17 17 17 17 17 17 16 16 16 16 16 16 16 16 16 16 16 16 16 16 16 16 16 15 14 14 14 14 14 14 14 13 13 13
19 19 19 18 18 18 18 17 17 17 17 17 16 16 16 16 16 16 16 16 16 15 15 15 15 15 15 15 15 15 15 15 15 14 14 14 14 14 14 13 13 13 13
19 19 19 18 18 18 17 17 17 17 17 16 16 16 16 16 16 15 15 15 15 15 15 15 15 15 15 15 15 15 15 15 15 14 14 14 13 13 13 13 13 12 12
19 19 18 18 18 18 17 17 17 17 16 16 16 16 16 15 15 15 15 15 15 15 15 15 15 15 15 15 14 14 14 14 14 14 13 13 13 13 13 13 12 12 12
19 18 18 18 18 17 17 17 16 16 16 16 16 15 15 15 15 15 15 15 15 14 14 14 14 14 14 14 14 14 14 14 14 13 13 13 13 12 12 12 12 12 12
18 18 18 18 17 17 17 16 16 16 16 15 15 15 15 15 15 15 15 14 14 14 14 14 14 14 14 14 14 13 13 13 13 13 13 12 12 12 12 12 12 12 11
18 18 17 17 17 16 16 16 16 15 15 15 15 15 15 15 15 15 14 14 14 14 13 13 13 13 13 13 13 13 13 13 13 13 12 12 12 12 12 12 12 11 11
18 17 17 17 16 16 16 16 15 15 15 15 14 14 15 14 14 14 14 14 14 13 13 13 13 13 13 13 13 12 12 12 12 12 12 12 11 11 11 11 11 11 11
17 17 17 16 16 16 16 15 15 15 14 14 14 14 14 14 14 14 13 13 13 13 13 13 13 12 12 12 12 12 12 11 11 11 11 11 11 11 11 11 11 11 10
17 17 16 16 16 16 15 15 15 15 14 14 14 14 14 14 13 13 13 13 13 13 12 12 12 12 12 12 12 11 11 11 11 11 11 11 10 10 10 11 11 10 10
17 16 16 16 16 16 15 15 15 14 14 14 14 13 13 13 13 13 13 13 12 12 12 12 12 12 11 11 11 11 11 11 11 11 11 10 10 10 10 10 10 10 10
17 16 16 16 15 15 15 15 15 14 14 14 13 13 13 13 13 13 13 13 12 12 12 12 12 11 11 11 11 11 11 11 11 10 10 10 10 10 10 10 10 10 10
16 16 15 15 15 15 15 14 14 14 14 13 13 13 13 13 13 12 12 12 12 12 12 11 11 11 11 11 11 10 10 10 10 10 10 10 10 10 10 10 10 9 9
16 16 15 15 15 14 14 14 14 14 13 13 13 13 12 12 12 12 12 12 12 11 11 11 11 11 11 10 10 10 10 10 10 10 10 10 10 10 9 9 9 9 9
16 15 15 15 15 14 14 14 14 14 14 13 13 13 13 12 12 12 12 12 11 11 11 11 11 11 11 10 10 10 10 10 9 9 9 9 9 9 9 9 9 9 9
15 15 15 14 14 14 14 14 13 13 13 13 13 13 12 12 12 12 12 11 11 11 11 11 11 10 10 10 10 10 10 9 9 9 9 9 9 9 9 9 9 9 9
15 15 15 14 14 14 14 14 13 13 13 13 13 12 12 12 12 12 11 11 11 11 11 11 10 10 10 10 10 10 9 9 9 9 9 9 9 9 9 9 9 9 9
15 15 15 14 14 14 14 14 14 13 13 12 12 12 12 12 12 11 11 11 11 11 11 10 10 10 10 10 10 9 9 9 9 9 9 9 9 9 9 9 9 8 8
15 15 14 14 14 14 14 13 13 13 13 12 12 12 12 12 11 11 11 11 11 11 10 10 10 10 10 9 9 9 9 9 9 8 8 8 8 8 8 8 8 8 8
15 14 14 14 14 14 14 14 13 13 12 12 12 12 12 11 11 11 11 10 10 10 10 10 10 9 9 9 9 9 9 8 8 8 8 8 8 8 8 8 8 8 8
14 14 14 14 14 14 13 13 13 13 13 12 12 11 11 11 11 10 10 10 10 10 10 9 9 9 9 9 9 8 8 8 8 8 8 8 8 8 8 8 8 8 7
14 14 14 14 13 13 13 13 13 13 13 12 12 11 11 11 11 10 10 10 10 9 9 9 9 9 9 8 8 8 8 8 8 7 7 7 7 7 7 7 7 7 7
14 14 13 13 13 13 13 13 13 13 12 12 11 11 11 11 10 10 10 10 9 9 9 9 9 8 8 8 8 8 8 7 7 7 7 7 7 7 7 7 7 7 7
14 13 13 13 13 13 13 12 12 12 12 12 11 11 11 10 10 10 10 9 9 9 9 9 8 8 8 8 7 7 7 7 7 7 7 7 6 6 6 6 6 6 6
13 13 13 13 13 12 12 12 12 12 11 11 11 11 10 10 10 10 9 9 9 9 9 8 8 8 7 7 7 7 7 7 6 6 6 6 6 6 6 6 6 6 6
13 13 13 12 12 12 12 12 12 11 11 11 10 10 10 10 10 9 9 9 9 9 8 8 8 7 7 7 7 7 6 6 6 6 6 6 6 6 6 6 6 6 6
Wind_Speed
6 5 5 4 4 3 3 3 3 2 2 2 2 3 3 4 3 3 3 3 4 4 4 4 3 2 2 1 1 0 1 2 3 1 2 3 3 4 6 8 9 10 10
7 6 5 5 5 4 4 3 3 2 2 3 2 3 3 4 4 4 4 4 4 5 5 5 5 4 4 3 2 1 1 2 4 4 2 1 2 2 3 4 6 8 10
7 7 6 5 5 5 4 4 3 3 3 3 3 4 4 3 4 4 4 5 5 5 6 6 6 6 5 4 3 2 1 2 3 4 3 2 1 2 2 3 4 5 7
7 7 7 6 5 5 4 4 3 3 3 4 4 4 4 4 4 4 4 4 5 6 7 7 8 8 7 5 4 4 3 3 3 3 3 2 2 1 1 2 2 2 3
7 7 7 6 5 5 4 4 4 4 4 4 4 4 4 5 5 4 3 4 5 5 6 7 9 11 13 10 7 6 5 4 3 3 3 3 2 1 0 1 2 2 2
7 7 7 6 6 5 5 4 5 5 5 5 5 6 7 6 8 8 5 5 5 5 5 5 7 9 10 12 13 13 10 7 4 4 4 4 2 1 1 1 1 1 1
7 7 7 6 6 5 5 6 5 5 5 6 6 7 7 8 10 10 9 5 6 6 6 6 7 8 7 6 8 10 12 13 10 7 6 5 4 3 2 2 2 1 1
7 7 7 6 6 5 6 6 6 5 5 5 6 6 6 7 9 9 8 6 7 7 7 7 7 8 9 7 8 8 8 8 8 7 6 5 5 4 4 2 1 1 1
8 7 6 6 6 6 6 6 6 5 6 5 5 5 6 7 9 8 6 4 6 7 8 8 8 7 10 8 6 7 6 5 7 8 7 5 4 5 5 3 2 1 1
7 7 6 6 6 6 6 6 6 5 6 6 6 6 6 6 8 9 6 3 5 6 6 7 10 9 9 9 5 5 5 3 3 3 2 1 2 3 6 4 3 3 2
8 8 7 6 7 7 6 5 5 5 6 6 6 6 6 6 7 9 9 4 3 4 5 5 5 8 8 8 7 5 3 2 1 1 2 2 2 3 3 5 4 3 3
8 8 8 7 7 7 6 5 5 5 5 5 5 5 5 5 5 7 8 8 7 5 5 4 4 5 5 6 5 6 6 4 1 2 3 3 2 2 2 2 3 2 1
9 7 7 7 6 6 6 5 4 3 4 4 4 4 4 4 4 6 6 7 8 5 4 4 4 2 2 2 3 5 5 3 3 3 2 2 1 1 1 0 0 0 2
9 7 7 7 6 5 4 4 3 2 2 3 3 3 4 4 3 2 2 3 4 3 2 3 1 1 2 1 1 2 1 2 3 3 2 2 2 1 1 1 1 1 1
8 7 7 7 7 5 5 4 3 3 1 1 2 3 3 3 2 2 1 1 1 2 0 1 1 1 1 1 1 1 2 2 2 2 2 2 2 2 2 2 2 2 2
8 7 6 6 6 6 6 6 10 7 8 9 8 6 5 6 6 6 5 5 5 4 1 0 0 1 1 1 1 1 2 2 3 2 2 2 2 2 2 2 2 2 3
7 7 6 6 6 6 7 7 6 5 8 9 8 9 8 7 6 5 4 3 3 2 0 0 1 1 1 1 1 1 2 2 1 2 2 2 3 2 2 2 2 2 3
6 6 6 6 5 5 6 6 6 7 6 4 4 5 7 6 4 3 2 1 0 1 1 0 0 1 1 1 2 2 2 1 1 2 2 2 3 3 3 3 2 3 3
6 5 5 5 5 5 5 6 6 6 6 6 6 4 4 4 2 1 0 1 1 1 0 0 1 1 1 2 2 2 2 2 2 2 2 3 3 3 3 4 3 3 3
4 5 5 5 5 5 5 5 6 5 5 6 6 5 5 5 3 3 3 2 1 0 0 1 1 1 1 1 1 1 2 2 2 2 2 3 3 3 4 4 4 3 3
5 5 5 4 4 4 4 4 4 5 5 5 5 6 7 5 4 4 3 2 1 0 1 1 1 0 1 1 1 1 2 2 2 3 3 3 4 4 3 4 3 3 4
5 5 5 4 3 3 2 3 3 4 5 6 5 6 6 4 3 3 3 2 2 1 1 0 0 1 1 1 1 2 2 3 3 3 4 4 4 4 4 4 4 3 3
5 5 5 4 3 3 3 3 3 4 4 4 5 5 5 3 2 2 2 2 2 1 1 1 0 2 3 3 4 4 3 3 3 4 5 5 5 4 4 4 5 5 4
5 5 5 5 4 3 3 3 3 3 4 4 4 4 5 3 2 2 1 1 1 1 2 2 2 3 4 4 4 5 6 5 5 5 6 6 6 5 5 5 5 5 5
4 4 5 5 4 4 3 3 3 3 3 3 3 3 4 4 3 3 2 1 1 1 2 3 3 3 4 4 4 5 4 5 5 5 6 7 6 6 6 6 5 5 5
4 4 4 3 3 3 3 3 3 4 3 3 3 3 3 3 3 3 2 2 1 2 2 2 3 4 4 4 5 4 3 3 4 6 7 7 6 5 6 6 7 6 7
Wind_Direction
141 137 131 132 131 120 100 91 88 69 38 47 40 39 40 33 27 29 33 24 20 12 7 6 360 350 340 336 338 84 145 151 150 136 103 90 84 100 121 126 122 118 113
138 130 124 119 114 109 101 90 85 83 64 53 50 51 53 44 34 37 37 36 33 29 21 16 12 15 13 2 8 38 95 129 148 146 131 113 87 115 136 141 126 123 125
133 128 118 111 107 102 96 89 81 72 61 55 58 60 53 52 51 43 40 44 43 42 34 28 19 19 15 15 20 28 69 102 123 135 137 135 99 103 98 106 106 116 122
129 122 117 115 112 108 100 94 90 83 71 63 65 62 54 50 46 42 51 55 52 53 52 48 42 35 23 17 37 37 58 88 111 123 127 121 95 77 104 126 120 111 113
129 126 123 121 119 111 106 101 94 87 82 70 70 67 64 59 38 28 50 65 61 66 68 69 66 62 52 45 49 45 55 66 80 96 105 102 90 99 112 179 135 146 126
129 127 123 121 117 111 108 101 91 84 79 72 65 60 57 50 31 35 43 61 68 64 62 70 78 66 60 59 60 58 56 62 64 76 84 89 76 54 3 26 129 149 133
129 125 123 120 115 113 109 97 90 85 83 78 74 72 66 43 34 38 39 66 72 62 54 51 59 58 53 58 67 64 57 55 61 72 72 69 65 32 10 23 39 58 103
131 127 122 118 113 107 102 96 89 87 86 83 82 79 73 48 34 40 38 76 75 67 61 59 58 50 40 47 69 70 64 52 57 72 71 62 60 27 9 13 22 78 90
132 131 128 124 122 115 109 103 99 96 93 89 85 83 76 52 34 38 45 91 88 77 68 58 56 52 30 42 73 81 78 73 76 88 95 97 80 45 28 23 11 38 91
131 130 128 126 126 119 115 113 111 107 104 99 92 86 82 66 40 34 30 86 99 94 85 73 57 47 36 35 53 68 68 50 57 80 93 78 70 57 49 37 21 25 38
130 129 127 123 123 121 119 118 120 114 108 107 103 94 83 71 57 45 40 50 72 94 94 84 63 45 42 36 38 51 30 343 331 86 102 90 72 59 51 47 37 37 37
128 128 126 129 132 125 123 121 118 121 124 123 122 114 98 83 65 57 55 54 53 68 82 90 85 56 40 35 35 18 7 360 6 68 71 59 54 54 56 54 46 43 44
133 134 130 125 120 126 132 132 137 151 153 147 145 134 121 110 89 75 75 68 60 64 71 94 107 78 29 35 26 10 8 9 15 33 54 63 77 86 70 53 234 281 308
140 137 136 134 129 120 122 125 125 131 150 150 142 133 125 120 105 89 106 100 103 96 101 125 167 252 284 339 17 354 7 27 10 2 22 26 36 49 36 23 332 288 275
146 146 145 141 133 117 96 68 83 68 79 112 110 114 126 120 108 109 123 100 91 64 22 168 176 186 208 228 113 72 44 36 13 360 6 19 23 23 10 2 347 338 344
155 155 156 153 148 144 130 101 58 69 77 77 80 91 88 106 119 96 73 55 44 34 22 274 114 61 47 51 46 58 58 32 3 356 2 9 6 358 350 352 354 345 343
163 163 160 160 163 161 154 147 136 91 69 70 83 95 107 117 106 92 66 24 351 10 285 333 73 72 39 28 35 47 51 42 353 342 352 1 349 340 336 335 345 344 343
164 159 163 166 169 169 166 165 161 156 151 135 109 117 127 127 116 95 64 36 189 190 240 197 108 81 72 44 35 39 35 39 3 346 353 351 340 336 336 337 352 360 340
170 168 171 169 172 172 171 167 164 165 160 153 149 152 164 156 160 181 222 242 242 208 172 106 52 50 50 62 45 18 10 17 21 4 4 355 342 334 338 338 339 339 323
171 165 169 177 178 174 176 172 167 167 166 162 163 161 166 177 180 176 195 239 266 291 33 58 43 34 45 49 53 357 351 21 25 351 354 347 340 338 335 329 330 331 322
168 164 175 188 182 174 178 183 174 171 171 164 156 154 172 190 183 178 179 188 209 26 36 11 339 16 76 70 30 13 10 17 14 355 349 343 339 336 330 329 329 329 331
174 172 177 179 175 171 176 173 169 168 160 151 146 150 167 195 187 170 161 154 162 168 144 271 325 34 54 42 41 33 35 25 5 351 342 333 326 324 326 325 324 328 330
175 171 168 165 164 159 177 164 157 153 146 145 147 153 166 191 186 152 154 148 151 158 140 119 60 59 58 47 55 60 42 26 5 2 352 335 324 319 318 319 319 323 322
176 170 166 168 172 176 178 168 160 154 148 152 158 157 156 160 159 144 144 141 144 133 114 99 75 62 62 61 62 66 59 38 14 4 349 318 310 314 317 314 311 315 315
177 173 172 174 172 170 164 159 155 151 152 152 151 148 151 159 166 164 163 157 147 115 104 106 99 87 82 85 81 87 75 49 28 0 331 311 306 311 315 317 319 317 314
177 175 167 155 145 146 153 159 161 159 160 164 159 150 161 170 170 175 171 155 158 138 122 121 111 109 108 104 110 106 88 36 357 339 321 302 303 315 324 319 319 318 313
Height
1544 1545 1546 1546 1547 1548 1548 1548 1548 1548 1548 1548 1548 1548 1548 1547 1547 1546 1546 1545 1544 1544 1543 1543 1543 1542 1542 1542 1542 1542 1543 1544 1545 1547 1548 1550 1550 1550 1549 1550 1550 1550 1550
1544 1545 1545 1546 1547 1547 1547 1547 1547 1547 1547 1547 1548 1547 1547 1547 1546 1546 1545 1544 1544 1543 1543 1542 1542 1541 1540 1540 1541 1541 1542 1543 1544 1545 1547 1548 1549 1549 1549 1549 1550 1550 1549
1543 1544 1545 1546 1546 1547 1547 1547 1547 1547 1547 1547 1547 1547 1546 1546 1546 1545 1544 1544 1543 1543 1542 1541 1541 1541 1540 1540 1540 1540 1541 1542 1543 1544 1545 1547 1548 1548 1549 1549 1549 1549 1549
1543 1544 1544 1545 1546 1546 1547 1547 1547 1547 1547 1547 1546 1546 1546 1546 1545 1545 1545 1544 1544 1543 1542 1541 1541 1540 1540 1540 1539 1539 1540 1541 1542 1543 1544 1545 1546 1547 1548 1547 1548 1548 1549
1542 1543 1544 1545 1546 1546 1546 1547 1547 1547 1547 1546 1546 1546 1546 1546 1545 1545 1545 1545 1544 1544 1543 1542 1542 1541 1541 1540 1540 1540 1540 1541 1542 1542 1543 1544 1545 1546 1547 1547 1547 1548 1548
1542 1543 1544 1544 1545 1546 1546 1546 1547 1547 1547 1547 1546 1546 1546 1546 1546 1546 1546 1545 1545 1545 1544 1544 1543 1542 1542 1541 1541 1541 1542 1542 1542 1542 1543 1544 1545 1546 1546 1547 1547 1547 1547
1541 1542 1543 1544 1545 1545 1546 1546 1547 1547 1547 1547 1546 1546 1546 1546 1546 1546 1546 1546 1546 1545 1545 1545 1544 1544 1543 1543 1543 1542 1542 1543 1544 1544 1543 1544 1544 1545 1545 1546 1546 1546 1546
1541 1542 1543 1543 1544 1545 1546 1546 1547 1547 1547 1547 1547 1547 1547 1547 1547 1547 1547 1547 1546 1546 1546 1546 1546 1545 1545 1545 1544 1544 1544 1544 1545 1544 1545 1545 1545 1545 1546 1546 1546 1546 1546
1540 1541 1542 1543 1544 1545 1545 1546 1547 1547 1547 1547 1547 1547 1547 1548 1548 1548 1548 1548 1548 1548 1548 1547 1547 1547 1547 1547 1546 1545 1545 1546 1546 1546 1546 1546 1546 1546 1546 1545 1545 1545 1545
1539 1540 1541 1542 1544 1544 1545 1546 1547 1547 1548 1548 1548 1548 1549 1549 1549 1550 1550 1550 1550 1549 1549 1549 1549 1548 1548 1548 1548 1547 1547 1548 1548 1547 1547 1547 1547 1546 1546 1545 1545 1544 1544
1538 1540 1541 1542 1544 1544 1545 1546 1547 1548 1549 1549 1549 1549 1550 1550 1551 1551 1551 1551 1551 1551 1551 1551 1550 1550 1550 1550 1549 1549 1549 1549 1549 1549 1549 1548 1548 1547 1546 1546 1545 1545 1544
1538 1540 1541 1542 1543 1544 1546 1547 1548 1549 1549 1550 1551 1551 1551 1551 1552 1552 1552 1553 1553 1552 1552 1552 1552 1552 1552 1551 1551 1551 1551 1551 1551 1550 1550 1549 1548 1548 1547 1546 1546 1545 1544
1537 1539 1540 1542 1543 1544 1546 1547 1548 1549 1550 1551 1551 1551 1552 1552 1553 1553 1553 1554 1554 1554 1554 1554 1554 1553 1553 1553 1553 1552 1552 1551 1551 1551 1550 1550 1549 1548 1547 1547 1546 1545 1544
1537 1539 1540 1541 1543 1544 1546 1547 1548 1549 1550 1551 1551 1552 1552 1552 1553 1553 1553 1554 1554 1554 1554 1555 1555 1555 1554 1554 1553 1553 1552 1552 1551 1551 1551 1550 1550 1549 1548 1547 1546 1545 1544
1536 1538 1540 1541 1543 1544 1545 1546 1548 1549 1550 1551 1551 1551 1552 1552 1552 1553 1553 1553 1554 1554 1555 1555 1555 1555 1555 1555 1554 1554 1553 1552 1552 1551 1551 1550 1549 1549 1548 1547 1546 1545 1544
1535 1537 1539 1541 1542 1543 1544 1546 1547 1548 1549 1550 1551 1551 1551 1552 1552 1553 1553 1554 1554 1555 1555 1555 1555 1555 1555 1555 1554 1554 1553 1552 1552 1551 1551 1550 1549 1548 1547 1546 1545 1544 1543
1534 1536 1538 1540 1541 1542 1543 1544 1545 1547 1548 1549 1550 1551 1551 1551 1552 1552 1553 1553 1554 1555 1555 1555 1555 1555 1555 1555 1554 1554 1553 1552 1552 1551 1550 1550 1549 1548 1547 1546 1545 1543 1542
1533 1535 1536 1538 1540 1541 1542 1543 1544 1545 1546 1548 1549 1550 1550 1551 1551 1552 1552 1553 1554 1554 1554 1554 1555 1555 1554 1554 1553 1553 1553 1552 1551 1551 1550 1549 1548 1547 1546 1545 1544 1542 1541
1532 1534 1535 1537 1539 1540 1541 1542 1543 1544 1545 1546 1547 1548 1549 1550 1551 1551 1552 1552 1552 1553 1553 1554 1554 1554 1553 1553 1552 1552 1552 1551 1550 1550 1549 1548 1547 1546 1545 1544 1543 1541 1540
1531 1532 1534 1535 1537 1538 1540 1541 1542 1543 1544 1544 1545 1546 1547 1548 1549 1550 1551 1551 1552 1552 1552 1552 1552 1552 1552 1551 1551 1551 1551 1550 1549 1548 1548 1547 1546 1545 1544 1543 1541 1540 1538
1529 1530 1532 1534 1535 1537 1538 1539 1540 1541 1542 1543 1544 1545 1546 1547 1548 1549 1549 1550 1550 1550 1551 1551 1551 1551 1550 1550 1550 1549 1549 1548 1548 1547 1546 1545 1544 1543 1542 1541 1540 1538 1537
1527 1528 1530 1531 1533 1535 1536 1537 1538 1540 1541 1541 1542 1544 1545 1546 1547 1547 1548 1548 1549 1549 1549 1550 1549 1549 1549 1549 1548 1547 1547 1546 1546 1545 1544 1543 1542 1541 1540 1539 1537 1536 1534
1525 1526 1528 1529 1531 1532 1534 1536 1537 1538 1539 1540 1541 1542 1543 1544 1545 1546 1546 1547 1547 1548 1548 1548 1548 1548 1547 1547 1546 1546 1545 1544 1543 1543 1542 1541 1540 1539 1538 1537 1535 1534 1533
1523 1525 1526 1528 1529 1531 1532 1534 1535 1536 1537 1538 1539 1541 1541 1542 1543 1544 1545 1546 1546 1546 1546 1546 1546 1546 1545 1545 1544 1543 1543 1542 1541 1540 1539 1539 1538 1537 1536 1534 1533 1532 1530
1522 1523 1525 1526 1528 1529 1531 1532 1533 1534 1536 1537 1538 1539 1540 1541 1542 1542 1543 1544 1544 1545 1545 1544 1544 1544 1543 1542 1542 1541 1541 1540 1539 1538 1537 1536 1535 1535 1534 1532 1531 1529 1528
1520 1521 1523 1525 1526 1527 1529 1530 1532 1533 1534 1535 1536 1537 1539 1539 1540 1541 1541 1542 1543 1542 1543 1542 1542 1541 1541 1540 1540 1539 1538 1537 1536 1536 1535 1534 1533 1532 1531 1529 1528 1526 1525